Hourly Weather Roundup
Issued by NWS Central Illinois

Home | Current Version | Previous Version | Text Only | Print | Product List | Glossary On
Versions: 1 2 3 4 5 6 7 8 9 10 11 12 13 14 15 16 17 18 19 20 21 22 23 24 25 26 27 28 29 30 31 32 33 34 35 36 37 38 39 40 41 42 43 44 45 46 47 48 49 50
128
NZUS43 KILX 280510
HWRILX

Area Weather Roundup
National Weather Service Lincoln IL
1200 AM CDT SUN MAY 28 2017

NOTE:  "FAIR" indicates few or no clouds below 12,000 feet, with
       no sigificant weather and/or obstructions to visibility.


CITY           SKY/WX    TMP DP  RH WIND       PRES   REMARKS
Bloomington    CLOUDY    65  62  90 E9        29.79F
Champaign      CLOUDY    65  62  90 E8        29.79F
Danville       RAIN      64  63  94 E5        29.78F
Decatur        MOCLDY    67  64  90 E8        29.77F
Effingham      CLOUDY    65  65 100 CALM      29.76F
Flora          CLOUDY    67  64  91 CALM      29.76F
Galesburg      CLOUDY    63  61  92 NE7       29.79F
Jacksonville   CLOUDY    64  62  93 W3        29.79R
Lacon          CLOUDY    66  64  91 E6        29.78F
Lawrenceville  CLOUDY    68  65  90 SE6       29.79S
Litchfield     CLOUDY    64  62  93 S5        29.80R
$$


CITY           SKY/WX    TMP DP  RH WIND       PRES   REMARKS
Lincoln        MOCLDY    69  65  85 E5        29.78F
Macomb         CLOUDY    65  63  91 N7        29.81S
Mattoon        CLOUDY    68  66  93 E5        29.76F
Mt Carmel AP   CLOUDY    67  62  83 SE6       29.79S
Olney-Noble AP CLOUDY    67  66  99 SE6       29.78F
Paris AP       CLOUDY    65  64  97 NE6       29.79F
Peoria         CLOUDY    67  63  87 E5        29.78F
Pontiac        CLOUDY    67  67  98 E8        29.80F
Rantoul        CLOUDY    67  64  91 E7        29.79F
Robinson       CLOUDY    68  66  94 E3        29.79F
Springfield    CLOUDY    68  62  81 SW3       29.78R
Taylorville    CLOUDY    64  61  88 S5        29.77S
$$

...REGIONAL REPORTS...


CITY           SKY/WX    TMP DP  RH WIND       PRES   REMARKS
Chicago O`Hare CLOUDY    64  53  67 CALM      29.82F
Kankakee       MOCLDY    63  62  96 CALM      29.83F
Moline         CLOUDY    63  60  90 NW3       29.80F
Mount Sterling CLOUDY    64  63  96 NW3       29.79R
Mount Vernon     N/A     66  61  84 NE5       29.73F
Pittsfield     CLOUDY    67  62  82 W6        29.80R
Quincy         CLOUDY    67  64  90 W5        29.80S
Rockford       CLOUDY    67  59  75 E3        29.83F
$$


CITY           SKY/WX    TMP DP  RH WIND       PRES   REMARKS
Burlington     CLOUDY    66  63  90 N6        29.80F
Cedar Rapids   CLOUDY    59  59 100 N7        29.82F
Des Moines     PTCLDY    59  55  87 NW6       29.87R
Kirksville     CLOUDY    62  61  96 N8        29.84R
Ottumwa        MOCLDY    58  57  97 NW7       29.84S
St Louis       CLOUDY    66  61  84 W3        29.80R
$$


CITY           SKY/WX    TMP DP  RH WIND       PRES   REMARKS
Terre Haute    CLOUDY    67  63  87 E3        29.80F
Evansville     CLOUDY    70  60  70 MISG      29.84R
Indianapolis   CLOUDY    68  62  81 E5        29.80F
Lafayette      CLOUDY    60  60 100 CALM      29.80F
Madison        CLOUDY    65  57  75 N3        29.81F
Milwaukee      CLOUDY    65  54  67 CALM      29.82F
$$






USA.gov is the U.S. government's official web portal to all federal, state and local government web resources and services.